Torna al catalogo

FENGYUN 1C DEB

AttivoSSO
NORAD 37081·DEBRIS·🇨🇳 China

Lanciato May 10, 1999 da Taiyuan Satellite Launch Center

Loading…

Prossimi Passaggi (prossime 24 ore)

TLE

AggiornatoSource: Space-Track

Epoca: Sep 13, 2026, 16:30 UTC

1 37081U 99025EFR 26256.68762703  .00010273  00000-0  33879-2 0  9999
2 37081  98.6806  48.8913 0246302 277.1842  80.1396 14.22492313624739

Traccia FENGYUN 1C DEB in tempo reale con AllMySat

Download on the App Store